,,,PA_Meas_PMT16A,,PR_Meas_QMR101_102,,RH_Meas_QMH101,,SR_Meas_QMS101,,TA_Meas_QMH101,,GenWind,,GenWind,
date,time,status,PA,status,PR,status,RH,status,SR,status,TA,status,DirAvg,status,SpdAvg,
2010-10-11, 00:00:04,VALID,1006.15,VALID,0,INVALID,140.844,VALID,184.835,VALID,24.2857,VALID,342,VALID,0.189453,
2010-10-11, 00:01:04,VALID,1006.12,VALID,0,INVALID,140.654,VALID,187.55,VALID,24.3459,VALID,331,VALID,0.0929687,
2010-10-11, 00:02:04,VALID,1006.12,VALID,0,INVALID,140.806,VALID,190.366,VALID,24.3654,VALID,276,VALID,0.421875,
2010-10-11, 00:03:04,VALID,1006.12,VALID,0,INVALID,141.34,VALID,193.181,VALID,24.3459,VALID,313,VALID,0.924219,
2010-10-11, 00:04:04,VALID,1006.13,VALID,0,INVALID,142.584,VALID,195.897,VALID,24.2486,VALID,294,VALID,1.33984,
2010-10-11, 00:05:04,VALID,1006.13,VALID,0,INVALID,142.904,VALID,198.511,VALID,24.1707,VALID,291,VALID,0.133203,
2010-10-11, 00:06:04,VALID,1006.12,VALID,0,INVALID,142.813,VALID,201.126,VALID,24.2291,VALID,296,VALID,0.252734,
2010-10-11, 00:07:04,VALID,1006.1,VALID,0,INVALID,142.721,VALID,203.942,VALID,24.2662,VALID,273,VALID,0.207422,
2010-10-11, 00:08:04,VALID,1006.1,VALID,0,INVALID,142.721,VALID,206.556,VALID,24.3654,VALID,356,VALID,0.235547,
2010-10-11, 00:09:04,VALID,1006.09,VALID,0,INVALID,142.752,VALID,209.171,VALID,24.4451,VALID,356,VALID,0,
2010-10-11, 00:10:04,VALID,1006.08,VALID,0,INVALID,142.889,VALID,211.584,VALID,24.4822,VALID,356,VALID,0,
2010-10-11, 00:11:04,VALID,1006.09,VALID,0,INVALID,142.965,VALID,213.897,VALID,24.5212,VALID,356,VALID,0,
2010-10-11, 00:12:04,VALID,1006.08,VALID,0,INVALID,143.644,VALID,216.11,VALID,24.4841,VALID,356,VALID,0,
2010-10-11, 00:13:04,VALID,1006.09,VALID,0,INVALID,143.789,VALID,218.02,VALID,24.562,VALID,356,VALID,0,
2010-10-11, 00:14:04,VALID,1006.07,VALID,0,INVALID,144.255,VALID,219.931,VALID,24.5425,VALID,356,VALID,0,
2010-10-11, 00:15:04,VALID,1006.03,VALID,0,INVALID,144.537,VALID,221.641,VALID,24.5406,VALID,356,VALID,0,
2010-10-11, 00:16:04,VALID,1006.04,VALID,0,INVALID,144.796,VALID,223.451,VALID,24.5814,VALID,356,VALID,0,
2010-10-11, 00:17:04,VALID,1006.01,VALID,0,INVALID,145.147,VALID,225.16,VALID,24.5796,VALID,356,VALID,0,
2010-10-11, 00:18:04,VALID,1006.01,VALID,0,INVALID,146.101,VALID,227.272,VALID,24.5035,VALID,356,VALID,0,
2010-10-11, 00:19:04,VALID,1006.01,VALID,0,INVALID,147.184,VALID,229.284,VALID,24.4257,VALID,346,VALID,0,
2010-10-11, 00:20:04,VALID,1005.98,VALID,0,INVALID,147.962,VALID,232.099,VALID,24.3654,VALID,346,VALID,0,
2010-10-11, 00:21:04,VALID,1005.96,VALID,0,INVALID,148.351,VALID,234.814,VALID,24.3849,VALID,346,VALID,0,
2010-10-11, 00:22:04,VALID,1005.93,VALID,0,INVALID,148.443,VALID,237.932,VALID,24.4238,VALID,346,VALID,0,
2010-10-11, 00:23:04,VALID,1005.93,VALID,0,INVALID,148.878,VALID,241.452,VALID,24.4822,VALID,309,VALID,0,
2010-10-11, 00:24:04,VALID,1005.93,VALID,0,INVALID,149.946,VALID,245.575,VALID,24.4628,VALID,297,VALID,0,
2010-10-11, 00:25:04,VALID,1005.91,VALID,0,INVALID,150.19,VALID,249.999,VALID,24.5017,VALID,297,VALID,0,
2010-10-11, 00:26:04,VALID,1005.92,VALID,0,INVALID,150.365,VALID,254.324,VALID,24.5796,VALID,298,VALID,0,
2010-10-11, 00:27:04,VALID,1005.9,VALID,0,INVALID,151.09,VALID,258.547,VALID,24.6185,VALID,298,VALID,0,
2010-10-11, 00:28:04,VALID,1005.9,VALID,0,INVALID,152.6,VALID,262.57,VALID,24.5017,VALID,298,VALID,0,
2010-10-11, 00:29:04,VALID,1005.91,VALID,0,INVALID,153.142,VALID,267.196,VALID,24.5425,VALID,298,VALID,0,
2010-10-11, 00:30:04,VALID,1005.89,VALID,0,INVALID,153.562,VALID,272.023,VALID,24.5601,VALID,298,VALID,0,
2010-10-11, 00:31:04,VALID,1005.85,VALID,0,INVALID,153.737,VALID,277.252,VALID,24.638,VALID,298,VALID,0,
2010-10-11, 00:32:04,VALID,1005.85,VALID,0,INVALID,153.806,VALID,282.582,VALID,24.6945,VALID,298,VALID,0,
2010-10-11, 00:33:04,VALID,1005.87,VALID,0,INVALID,154.737,VALID,287.711,VALID,24.7177,VALID,298,VALID,0,
2010-10-11, 00:34:04,VALID,1005.87,VALID,0,INVALID,155.675,VALID,294.348,VALID,24.675,VALID,298,VALID,0,
2010-10-11, 00:35:04,VALID,1005.84,VALID,0,INVALID,156.781,VALID,300.985,VALID,24.6964,VALID,298,VALID,0,
2010-10-11, 00:36:04,VALID,1005.82,VALID,0,INVALID,157.399,VALID,307.723,VALID,24.7353,VALID,298,VALID,0,
2010-10-11, 00:37:04,VALID,1005.81,VALID,0,INVALID,157.712,VALID,314.661,VALID,24.8327,VALID,298,VALID,0,
2010-10-11, 00:38:04,VALID,1005.78,VALID,0,INVALID,158.078,VALID,322.103,VALID,24.8911,VALID,298,VALID,0,
2010-10-11, 00:39:04,VALID,1005.73,VALID,0,INVALID,157.971,VALID,329.042,VALID,24.9885,VALID,238,VALID,0,
2010-10-11, 00:40:04,VALID,1005.73,VALID,0,INVALID,158.261,VALID,338.093,VALID,25.045,VALID,254,VALID,0,
2010-10-11, 00:41:04,VALID,1005.71,VALID,0,INVALID,158.36,VALID,347.043,VALID,25.0663,VALID,254,VALID,0,
2010-10-11, 00:42:04,VALID,1005.66,VALID,0,INVALID,158.406,VALID,355.792,VALID,25.1851,VALID,267,VALID,0,
2010-10-11, 00:43:04,VALID,1005.66,VALID,0,INVALID,158.391,VALID,363.636,VALID,25.3409,VALID,284,VALID,0,
2010-10-11, 00:44:04,VALID,1005.65,VALID,0,INVALID,158.505,VALID,371.379,VALID,25.3,VALID,273,VALID,0,
2010-10-11, 00:45:04,VALID,1005.58,VALID,0,INVALID,158.353,VALID,379.122,VALID,25.3409,VALID,269,VALID,0.563281,
2010-10-11, 00:46:04,VALID,1005.53,VALID,0,INVALID,157.552,VALID,385.558,VALID,25.3584,VALID,238,VALID,0.617188,
2010-10-11, 00:47:04,VALID,1005.54,VALID,0,INVALID,157.262,VALID,392.195,VALID,25.3604,VALID,256,VALID,0.310937,
2010-10-11, 00:48:04,VALID,1005.5,VALID,0,INVALID,158.04,VALID,398.229,VALID,25.4577,VALID,232,VALID,0.173438,
2010-10-11, 00:49:04,VALID,1005.52,VALID,0,INVALID,115.524,VALID,403.358,VALID,25.4558,VALID,298,VALID,0.967188,
2010-10-11, 00:50:04,VALID,1005.46,VALID,0,VALID,96.5816,VALID,406.576,VALID,25.4577,VALID,293,VALID,0.775781,
2010-10-11, 00:51:04,VALID,1005.47,VALID,0,VALID,102.532,VALID,407.582,VALID,25.5162,VALID,282,VALID,0.301172,
2010-10-11, 00:52:04,VALID,1005.45,VALID,0,INVALID,112.48,VALID,402.654,VALID,25.6116,VALID,298,VALID,0.237109,
2010-10-11, 00:53:04,VALID,1005.42,VALID,0,VALID,94.6744,VALID,401.045,VALID,25.7109,VALID,36,VALID,0.529297,
2010-10-11, 00:54:04,VALID,1005.43,VALID,0,VALID,90.9286,VALID,394.207,VALID,25.7499,VALID,283,VALID,0.644922,
2010-10-11, 00:55:04,VALID,1005.39,VALID,0,VALID,88.8002,VALID,392.497,VALID,25.748,VALID,288,VALID,0.225391,
2010-10-11, 00:56:04,VALID,1005.37,VALID,0,VALID,89.8911,VALID,399.939,VALID,25.8668,VALID,245,VALID,0.344141,
2010-10-11, 00:57:04,VALID,1005.35,VALID,0,VALID,88.5789,VALID,388.274,VALID,25.9057,VALID,15,VALID,0.232422,
2010-10-11, 00:58:04,VALID,1005.36,VALID,0,VALID,87.3812,VALID,371.58,VALID,26.0031,VALID,289,VALID,0.616016,
2010-10-11, 00:59:04,VALID,1005.34,VALID,0,VALID,86.1758,VALID,377.212,VALID,26.0421,VALID,282,VALID,0.326172,
2010-10-11, 01:00:04,VALID,1005.33,VALID,0,VALID,85.5426,VALID,406.073,VALID,26.1005,VALID,297,VALID,0.318359,
2010-10-11, 01:01:04,VALID,1005.29,VALID,0,VALID,84.116,VALID,431.516,VALID,26.1375,VALID,288,VALID,0.535156,
2010-10-11, 01:02:04,VALID,1005.26,VALID,0,VALID,85.0925,VALID,421.962,VALID,26.1959,VALID,338,VALID,0.461719,
2010-10-11, 01:03:04,VALID,1005.26,VALID,0,VALID,83.0632,VALID,426.689,VALID,26.2544,VALID,339,VALID,0.127734,
2010-10-11, 01:04:04,VALID,1005.24,VALID,0,VALID,80.4084,VALID,421.56,VALID,26.2953,VALID,339,VALID,0.236328,
2010-10-11, 01:05:04,VALID,1005.23,VALID,0,VALID,79.1649,VALID,426.99,VALID,26.3538,VALID,339,VALID,0.375,
2010-10-11, 01:06:04,VALID,1005.24,VALID,0,VALID,81.2323,VALID,448.31,VALID,26.3927,VALID,273,VALID,0.437891,
2010-10-11, 01:07:04,VALID,1005.19,VALID,0,VALID,80.1719,VALID,464.902,VALID,26.3927,VALID,201,VALID,1.17852,
2010-10-11, 01:08:04,VALID,1005.15,VALID,0,VALID,82.8039,VALID,467.316,VALID,26.3733,VALID,206,VALID,0.45625,
2010-10-11, 01:09:04,VALID,1005.11,VALID,0,VALID,80.0498,VALID,478.177,VALID,26.2759,VALID,206,VALID,1.34414,
2010-10-11, 01:10:04,VALID,1005.09,VALID,0,VALID,82.3309,VALID,473.953,VALID,26.2739,VALID,206,VALID,0.467187,
2010-10-11, 01:11:04,VALID,1005.03,VALID,0,VALID,80.1795,VALID,499.798,VALID,26.2564,VALID,175,VALID,0.755078,
2010-10-11, 01:12:04,VALID,1005.01,VALID,0,VALID,82.9488,VALID,500.2,VALID,26.3518,VALID,204,VALID,0.514453,
2010-10-11, 01:13:04,VALID,1004.94,VALID,0,VALID,83.0632,VALID,519.408,VALID,26.4297,VALID,222,VALID,0.186328,
2010-10-11, 01:14:04,VALID,1004.92,VALID,0,VALID,83.2692,VALID,527.855,VALID,26.607,VALID,220,VALID,0.490625,
2010-10-11, 01:15:04,VALID,1004.92,VALID,0,VALID,80.622,VALID,527.252,VALID,26.7219,VALID,223,VALID,0.115234,
2010-10-11, 01:16:04,VALID,1004.91,VALID,0,VALID,79.142,VALID,483.004,VALID,26.8214,VALID,228,VALID,0.421484,
2010-10-11, 01:17:04,VALID,1004.87,VALID,0,VALID,81.4383,VALID,500.602,VALID,26.9383,VALID,329,VALID,0.566016,
2010-10-11, 01:18:04,VALID,1004.82,VALID,0,VALID,76.2278,VALID,509.251,VALID,27.0142,VALID,291,VALID,0.803516,
2010-10-11, 01:19:04,VALID,1004.81,VALID,0,VALID,77.9138,VALID,490.848,VALID,27.0942,VALID,218,VALID,0.249609,
2010-10-11, 01:20:04,VALID,1004.79,VALID,0,VALID,78.0968,VALID,519.106,VALID,27.1311,VALID,217,VALID,0.308594,
2010-10-11, 01:21:04,VALID,1004.74,VALID,0,VALID,76.1667,VALID,520.514,VALID,27.248,VALID,240,VALID,0.704687,
2010-10-11, 01:22:04,VALID,1004.75,VALID,0,VALID,77.7612,VALID,510.256,VALID,27.328,VALID,227,VALID,0.191797,
2010-10-11, 01:23:04,VALID,1004.71,VALID,0,VALID,75.3504,VALID,498.792,VALID,27.4233,VALID,250,VALID,0.543359,
2010-10-11, 01:24:04,VALID,1004.72,VALID,0,VALID,76.1744,VALID,495.272,VALID,27.5813,VALID,251,VALID,0.266797,
2010-10-11, 01:25:04,VALID,1004.69,VALID,0,VALID,75.381,VALID,501.105,VALID,27.6572,VALID,228,VALID,0.357031,
2010-10-11, 01:26:04,VALID,1004.71,VALID,0,VALID,77.1204,VALID,501.206,VALID,27.6962,VALID,226,VALID,0.320703,
2010-10-11, 01:27:04,VALID,1004.7,VALID,0,VALID,74.4731,VALID,504.927,VALID,27.7741,VALID,214,VALID,0.521484,
2010-10-11, 01:28:04,VALID,1004.71,VALID,0,VALID,72.4362,VALID,497.485,VALID,27.9127,VALID,213,VALID,0.159766,
2010-10-11, 01:29:04,VALID,1004.69,VALID,0,VALID,73.756,VALID,475.964,VALID,27.8932,VALID,158,VALID,0.515234,
2010-10-11, 01:30:04,VALID,1004.69,VALID,0,VALID,72.4362,VALID,465.808,VALID,27.9516,VALID,163,VALID,0.428906,
2010-10-11, 01:31:04,VALID,1004.74,VALID,0,VALID,73.1228,VALID,449.416,VALID,27.8737,VALID,188,VALID,0.807031,
2010-10-11, 01:32:04,VALID,1004.72,VALID,0,VALID,72.1463,VALID,440.466,VALID,27.7394,VALID,215,VALID,0.727344,
2010-10-11, 01:33:04,VALID,1004.73,VALID,0,VALID,75.6937,VALID,441.471,VALID,27.6203,VALID,183,VALID,0.899609,
2010-10-11, 01:34:04,VALID,1004.73,VALID,0,VALID,75.5488,VALID,430.611,VALID,27.4839,VALID,177,VALID,1.06133,
2010-10-11, 01:35:04,VALID,1004.72,VALID,0,VALID,73.817,VALID,392.899,VALID,27.367,VALID,176,VALID,1.4168,
2010-10-11, 01:36:04,VALID,1004.72,VALID,0,VALID,75.6709,VALID,385.961,VALID,27.248,VALID,162,VALID,0.616406,
2010-10-11, 01:37:04,VALID,1004.68,VALID,0,VALID,74.6715,VALID,382.039,VALID,27.1721,VALID,165,VALID,0.380078,
2010-10-11, 01:38:04,VALID,1004.71,VALID,0,VALID,75.8845,VALID,382.743,VALID,27.2521,VALID,166,VALID,0.246484,
2010-10-11, 01:39:04,VALID,1004.68,VALID,0,VALID,73.5195,VALID,406.274,VALID,27.2695,VALID,201,VALID,1.26953,
2010-10-11, 01:40:04,VALID,1004.67,VALID,0,VALID,73.0847,VALID,438.052,VALID,27.1916,VALID,211,VALID,1.10273,
2010-10-11, 01:41:04,VALID,1004.65,VALID,0,VALID,75.0148,VALID,445.293,VALID,27.0726,VALID,203,VALID,0.942969,
2010-10-11, 01:42:04,VALID,1004.64,VALID,0,VALID,73.9773,VALID,480.791,VALID,27.0357,VALID,206,VALID,1.23047,
2010-10-11, 01:43:04,VALID,1004.59,VALID,0,VALID,76.0523,VALID,501.005,VALID,27.0572,VALID,208,VALID,0.880469,
2010-10-11, 01:44:04,VALID,1004.56,VALID,0,VALID,77.0593,VALID,520.112,VALID,26.9967,VALID,145,VALID,0.585156,
2010-10-11, 01:45:04,VALID,1004.5,VALID,0,VALID,75.5946,VALID,510.156,VALID,27.0747,VALID,209,VALID,1.28594,
2010-10-11, 01:46:04,VALID,1004.49,VALID,0,VALID,76.1133,VALID,525.24,VALID,27.1136,VALID,263,VALID,0.792969,
2010-10-11, 01:47:04,VALID,1004.44,VALID,0,VALID,77.2882,VALID,453.74,VALID,27.25,VALID,274,VALID,0.615234,
2010-10-11, 01:48:04,VALID,1004.41,VALID,0,VALID,78.4554,VALID,493.865,VALID,27.3496,VALID,210,VALID,0.814453,
2010-10-11, 01:49:04,VALID,1004.43,VALID,0,VALID,72.3981,VALID,644.91,VALID,27.408,VALID,209,VALID,1.56875,
2010-10-11, 01:50:04,VALID,1004.41,VALID,0,VALID,72.8024,VALID,647.826,VALID,27.3106,VALID,179,VALID,1.02695,
2010-10-11, 01:51:04,VALID,1004.4,VALID,0,VALID,76.6855,VALID,703.036,VALID,27.3085,VALID,210,VALID,0.729688,
2010-10-11, 01:52:04,VALID,1004.4,VALID,0,VALID,75.4725,VALID,597.444,VALID,27.367,VALID,229,VALID,0.844922,
2010-10-11, 01:53:04,VALID,1004.39,VALID,0,VALID,76.1286,VALID,582.863,VALID,27.4449,VALID,173,VALID,0.625781,
2010-10-11, 01:54:04,VALID,1004.39,VALID,0,VALID,76.327,VALID,591.612,VALID,27.5618,VALID,134,VALID,0.451953,
2010-10-11, 01:55:04,VALID,1004.4,VALID,0,VALID,71.8488,VALID,553.498,VALID,27.6398,VALID,194,VALID,1.00664,
2010-10-11, 01:56:04,VALID,1004.38,VALID,0,VALID,75.0987,VALID,580.148,VALID,27.7178,VALID,260,VALID,0.425391,
2010-10-11, 01:57:04,VALID,1004.34,VALID,0,VALID,76.922,VALID,591.813,VALID,27.7762,VALID,185,VALID,0.923828,
2010-10-11, 01:58:04,VALID,1004.32,VALID,0,VALID,76.6092,VALID,812.247,VALID,27.8716,VALID,304,VALID,0.917969,
2010-10-11, 01:59:04,VALID,1004.29,VALID,0,VALID,74.8241,VALID,661.805,VALID,28.0491,VALID,238,VALID,0.640625,
2010-10-11, 02:00:04,VALID,1004.31,VALID,0,VALID,77.5933,VALID,771.72,VALID,28.244,VALID,293,VALID,0.691797,
2010-10-11, 02:01:04,VALID,1004.3,VALID,0,VALID,73.4585,VALID,765.787,VALID,28.4173,VALID,274,VALID,1.12031,
2010-10-11, 02:02:04,VALID,1004.3,VALID,0,VALID,70.6434,VALID,653.357,VALID,28.5559,VALID,279,VALID,1.27617,
2010-10-11, 02:03:04,VALID,1004.25,VALID,0,VALID,70.384,VALID,638.172,VALID,28.5169,VALID,317,VALID,0.525,
2010-10-11, 02:04:04,VALID,1004.26,VALID,0,VALID,72.688,VALID,444.187,VALID,28.5559,VALID,242,VALID,0.997266,
2010-10-11, 02:05:04,VALID,1004.27,VALID,0,VALID,71.9632,VALID,394.006,VALID,28.6534,VALID,251,VALID,0.48125,
2010-10-11, 02:06:04,VALID,1004.25,VALID,0,VALID,68.6447,VALID,420.554,VALID,28.6144,VALID,239,VALID,0.935156,
2010-10-11, 02:07:04,VALID,1004.25,VALID,0,VALID,71.9098,VALID,455.751,VALID,28.4779,VALID,268,VALID,0.846484,
2010-10-11, 02:08:04,VALID,1004.25,VALID,0,VALID,69.8195,VALID,449.516,VALID,28.4584,VALID,307,VALID,1.0793,
2010-10-11, 02:09:04,VALID,1004.27,VALID,0,VALID,70.7579,VALID,363.937,VALID,28.4779,VALID,315,VALID,0.579687,
2010-10-11, 02:10:04,VALID,1004.26,VALID,0,VALID,71.1164,VALID,300.985,VALID,28.4974,VALID,310,VALID,0.43125,
2010-10-11, 02:11:04,VALID,1004.29,VALID,0,VALID,69.7356,VALID,299.275,VALID,28.4974,VALID,345,VALID,0.79375,
2010-10-11, 02:12:04,VALID,1004.27,VALID,0,VALID,71.063,VALID,313.656,VALID,28.4974,VALID,345,VALID,0.416016,
2010-10-11, 02:13:04,VALID,1004.29,VALID,0,VALID,70.5595,VALID,339.601,VALID,28.4779,VALID,306,VALID,0.632422,
2010-10-11, 02:14:04,VALID,1004.28,VALID,0,VALID,70.7808,VALID,374.899,VALID,28.5364,VALID,229,VALID,0.419531,
2010-10-11, 02:15:04,VALID,1004.29,VALID,0,VALID,67.7902,VALID,424.376,VALID,28.5364,VALID,4,VALID,0.566797,
2010-10-11, 02:16:04,VALID,1004.29,VALID,0,VALID,68.7133,VALID,505.429,VALID,28.4216,VALID,15,VALID,0.418359,
2010-10-11, 02:17:04,VALID,1004.25,VALID,0,VALID,67.8436,VALID,716.813,VALID,28.3415,VALID,15,VALID,0.591016,
2010-10-11, 02:18:04,VALID,1004.24,VALID,0,VALID,69.995,VALID,491.853,VALID,28.322,VALID,27,VALID,0.285937,
2010-10-11, 02:19:04,VALID,1004.22,VALID,0,VALID,70.3764,VALID,462.891,VALID,28.4,VALID,145,VALID,0.291016,
2010-10-11, 02:20:04,VALID,1004.18,VALID,0,VALID,70.3688,VALID,445.997,VALID,28.4021,VALID,290,VALID,1.18359,
2010-10-11, 02:21:04,VALID,1004.23,VALID,0,VALID,71.4216,VALID,456.053,VALID,28.3025,VALID,5,VALID,0.828125,
2010-10-11, 02:22:04,VALID,1004.2,VALID,0,VALID,69.9721,VALID,482.4,VALID,28.1466,VALID,27,VALID,0.598047,
2010-10-11, 02:23:04,VALID,1004.21,VALID,0,VALID,69.8195,VALID,453.539,VALID,28.0881,VALID,95,VALID,0.235938,
2010-10-11, 02:24:04,VALID,1004.2,VALID,0,VALID,71.2843,VALID,448.511,VALID,28.1466,VALID,231,VALID,0.344922,
2010-10-11, 02:25:04,VALID,1004.17,VALID,0,VALID,72.0624,VALID,433.426,VALID,28.205,VALID,1,VALID,0.660937,
2010-10-11, 02:26:04,VALID,1004.15,VALID,0,VALID,68.4311,VALID,421.66,VALID,28.1466,VALID,355,VALID,0.873438,
2010-10-11, 02:27:04,VALID,1004.16,VALID,0,VALID,71.3682,VALID,410.096,VALID,28.1076,VALID,353,VALID,0.431641,
2010-10-11, 02:28:04,VALID,1004.14,VALID,0,VALID,68.1869,VALID,399.838,VALID,28.1271,VALID,345,VALID,0.349609,
2010-10-11, 02:29:04,VALID,1004.16,VALID,0,VALID,68.1259,VALID,389.078,VALID,28.2072,VALID,353,VALID,0.786719,
2010-10-11, 02:30:04,VALID,1004.16,VALID,0,VALID,69.316,VALID,380.027,VALID,28.166,VALID,354,VALID,0.0785156,
2010-10-11, 02:31:04,VALID,1004.16,VALID,0,VALID,68.9727,VALID,372.183,VALID,28.166,VALID,355,VALID,0.537891,
2010-10-11, 02:32:04,VALID,1004.16,VALID,0,VALID,72.1158,VALID,361.926,VALID,27.9927,VALID,120,VALID,0.5625,
2010-10-11, 02:33:04,VALID,1004.14,VALID,0,VALID,73.2907,VALID,353.278,VALID,27.9321,VALID,119,VALID,0.508203,
2010-10-11, 02:34:04,VALID,1004.16,VALID,0,VALID,72.8711,VALID,348.249,VALID,27.9516,VALID,237,VALID,1.12617,
2010-10-11, 02:35:04,VALID,1004.16,VALID,0,VALID,73.7408,VALID,347.546,VALID,27.8737,VALID,146,VALID,1.45586,
2010-10-11, 02:36:04,VALID,1004.18,VALID,0,VALID,71.9632,VALID,344.026,VALID,27.6203,VALID,124,VALID,0.885938,
2010-10-11, 02:37:04,VALID,1004.14,VALID,0,VALID,72.749,VALID,340.808,VALID,27.5618,VALID,213,VALID,0.656641,
2010-10-11, 02:38:04,VALID,1004.13,VALID,0,VALID,72.8024,VALID,345.333,VALID,27.5229,VALID,171,VALID,1.16094,
2010-10-11, 02:39:04,VALID,1004.12,VALID,0,VALID,72.8558,VALID,358.105,VALID,27.4059,VALID,164,VALID,1.15586,
2010-10-11, 02:40:04,VALID,1004.13,VALID,0,VALID,72.4515,VALID,363.434,VALID,27.3085,VALID,161,VALID,0.497656,
2010-10-11, 02:41:04,VALID,1004.13,VALID,0,VALID,72.8711,VALID,355.088,VALID,27.3085,VALID,194,VALID,0.965234,
2010-10-11, 02:42:04,VALID,1004.1,VALID,0,VALID,72.6727,VALID,350.06,VALID,27.2716,VALID,202,VALID,1.29414,
2010-10-11, 02:43:04,VALID,1004.09,VALID,0,VALID,72.7948,VALID,353.881,VALID,27.1916,VALID,211,VALID,0.633203,
2010-10-11, 02:44:04,VALID,1004.1,VALID,0,VALID,75.8387,VALID,359.513,VALID,27.25,VALID,157,VALID,0.676562,
2010-10-11, 02:45:04,VALID,1004.08,VALID,0,VALID,76.1896,VALID,362.932,VALID,27.328,VALID,147,VALID,1.00234,
2010-10-11, 02:46:04,VALID,1004.04,VALID,0,VALID,74.1069,VALID,374.798,VALID,27.3475,VALID,180,VALID,1.58906,
2010-10-11, 02:47:04,VALID,1004.07,VALID,0,VALID,74.8241,VALID,399.134,VALID,27.3496,VALID,194,VALID,0.827344,
2010-10-11, 02:48:04,VALID,1004.01,VALID,0,VALID,75.2513,VALID,435.84,VALID,27.328,VALID,199,VALID,1.24141,
2010-10-11, 02:49:04,VALID,1003.99,VALID,0,VALID,75.1597,VALID,529.062,VALID,27.3106,VALID,184,VALID,1.35117,
2010-10-11, 02:50:04,VALID,1004,VALID,0,VALID,75.6098,VALID,480.49,VALID,27.2285,VALID,149,VALID,1.6293,
2010-10-11, 02:51:04,VALID,1003.93,VALID,0,VALID,77.1204,VALID,627.211,VALID,27.1331,VALID,135,VALID,1.54414,
2010-10-11, 02:52:04,VALID,1003.92,VALID,0,VALID,76.3117,VALID,558.225,VALID,27.1352,VALID,202,VALID,1.38086,
2010-10-11, 02:53:04,VALID,1003.91,VALID,0,VALID,75.854,VALID,649.134,VALID,27.1136,VALID,212,VALID,1.85039,
2010-10-11, 02:54:04,VALID,1003.9,VALID,0,VALID,75.6861,VALID,748.49,VALID,27.0942,VALID,207,VALID,1.09141,
2010-10-11, 02:55:04,VALID,1003.86,VALID,0,VALID,75.1597,VALID,531.475,VALID,27.0942,VALID,189,VALID,1.63047,
2010-10-11, 02:56:04,VALID,1003.86,VALID,0,VALID,77.2348,VALID,660.799,VALID,27.0747,VALID,173,VALID,1.55313,
2010-10-11, 02:57:04,VALID,1003.82,VALID,0,VALID,77.5628,VALID,611.724,VALID,27.0747,VALID,157,VALID,1.01406,
2010-10-11, 02:58:04,VALID,1003.8,VALID,0,VALID,76.4109,VALID,739.842,VALID,27.1136,VALID,201,VALID,0.801953,
2010-10-11, 02:59:04,VALID,1003.8,VALID,0,VALID,78.2647,VALID,831.555,VALID,27.1936,VALID,190,VALID,0.864062,
2010-10-11, 03:00:04,VALID,1003.8,VALID,0,VALID,77.662,VALID,803.599,VALID,27.25,VALID,174,VALID,0.9875,
2010-10-11, 03:01:04,VALID,1003.74,VALID,0,VALID,76.0752,VALID,606.395,VALID,27.2716,VALID,190,VALID,1.3375,
2010-10-11, 03:02:04,VALID,1003.72,VALID,0,VALID,74.6257,VALID,546.66,VALID,27.2695,VALID,224,VALID,0.517187,
2010-10-11, 03:03:04,VALID,1003.76,VALID,0,VALID,79.7905,VALID,543.04,VALID,27.3496,VALID,180,VALID,1.02422,
2010-10-11, 03:04:04,VALID,1003.73,VALID,0,VALID,74.5876,VALID,531.877,VALID,27.1895,VALID,137,VALID,0.830859,
2010-10-11, 03:05:04,VALID,1003.72,VALID,0,VALID,77.9672,VALID,495.474,VALID,27.2695,VALID,106,VALID,0.605859,
2010-10-11, 03:06:04,VALID,1003.72,VALID,0,VALID,75.9913,VALID,458.165,VALID,27.25,VALID,93,VALID,0.400391,
2010-10-11, 03:07:04,VALID,1003.67,VALID,0,VALID,78.547,VALID,434.13,VALID,27.3649,VALID,147,VALID,1.13828,
2010-10-11, 03:08:04,VALID,1003.67,VALID,0,VALID,77.5323,VALID,415.928,VALID,27.367,VALID,172,VALID,1.4543,
2010-10-11, 03:09:04,VALID,1003.66,VALID,0,VALID,77.6849,VALID,403.358,VALID,27.3085,VALID,172,VALID,0.695703,
2010-10-11, 03:10:04,VALID,1003.67,VALID,0,VALID,79.9049,VALID,396.821,VALID,27.3865,VALID,170,VALID,0.620703,
2010-10-11, 03:11:04,VALID,1003.68,VALID,0,VALID,76.2888,VALID,390.586,VALID,27.4059,VALID,209,VALID,0.715234,
2010-10-11, 03:12:04,VALID,1003.66,VALID,0,VALID,77.6773,VALID,391.391,VALID,27.5034,VALID,256,VALID,0.583984,
2010-10-11, 03:13:04,VALID,1003.66,VALID,0,VALID,78.0206,VALID,399.738,VALID,27.6398,VALID,253,VALID,0.309375,
2010-10-11, 03:14:04,VALID,1003.64,VALID,0,VALID,76.9144,VALID,416.833,VALID,27.7372,VALID,210,VALID,0.853906,
2010-10-11, 03:15:04,VALID,1003.62,VALID,0,VALID,75.3199,VALID,431.616,VALID,27.6983,VALID,207,VALID,1.31758,
2010-10-11, 03:16:04,VALID,1003.62,VALID,0,VALID,76.1439,VALID,445.092,VALID,27.6203,VALID,166,VALID,0.676172,
2010-10-11, 03:17:04,VALID,1003.6,VALID,0,VALID,76.6702,VALID,462.59,VALID,27.6008,VALID,207,VALID,0.669922,
2010-10-11, 03:18:04,VALID,1003.59,VALID,0,VALID,77.9748,VALID,465.405,VALID,27.6593,VALID,207,VALID,0.126953,
2010-10-11, 03:19:04,VALID,1003.57,VALID,0,VALID,76.4185,VALID,468.623,VALID,27.8152,VALID,268,VALID,0.485547,
2010-10-11, 03:20:04,VALID,1003.58,VALID,0,VALID,73.3517,VALID,472.143,VALID,27.8932,VALID,208,VALID,0.610156,
2010-10-11, 03:21:04,VALID,1003.53,VALID,0,VALID,76.8305,VALID,477.976,VALID,27.9711,VALID,238,VALID,0.464453,
2010-10-11, 03:22:04,VALID,1003.5,VALID,0,VALID,76.037,VALID,488.836,VALID,28.166,VALID,240,VALID,0.576172,
2010-10-11, 03:23:04,VALID,1003.5,VALID,0,VALID,72.9016,VALID,498.39,VALID,28.283,VALID,224,VALID,0.6125,
2010-10-11, 03:24:04,VALID,1003.47,VALID,0,VALID,75.0911,VALID,519.91,VALID,28.322,VALID,225,VALID,0.202734,
2010-10-11, 03:25:04,VALID,1003.46,VALID,0,VALID,73.222,VALID,531.877,VALID,28.4389,VALID,188,VALID,0.628125,
2010-10-11, 03:26:04,VALID,1003.42,VALID,0,VALID,70.9257,VALID,534.391,VALID,28.3783,VALID,197,VALID,0.786719,
2010-10-11, 03:27:04,VALID,1003.41,VALID,0,VALID,70.5977,VALID,556.616,VALID,28.3003,VALID,160,VALID,0.509375,
2010-10-11, 03:28:04,VALID,1003.39,VALID,0,VALID,70.1552,VALID,631.435,VALID,28.2245,VALID,167,VALID,1.14805,
2010-10-11, 03:29:04,VALID,1003.36,VALID,0,VALID,72.2302,VALID,574.416,VALID,28.1271,VALID,168,VALID,0.520312,
2010-10-11, 03:30:04,VALID,1003.35,VALID,0,VALID,74.0001,VALID,551.387,VALID,28.1855,VALID,142,VALID,0.39375,
2010-10-11, 03:31:04,VALID,1003.36,VALID,0,VALID,74.2672,VALID,584.371,VALID,28.322,VALID,229,VALID,0.523047,
2010-10-11, 03:32:04,VALID,1003.33,VALID,0,VALID,70.941,VALID,610.216,VALID,28.4974,VALID,276,VALID,1.02148,
2010-10-11, 03:33:04,VALID,1003.34,VALID,0,VALID,73.7484,VALID,547.465,VALID,28.6534,VALID,253,VALID,0.657812,
2010-10-11, 03:34:04,VALID,1003.27,VALID,0,VALID,70.7502,VALID,570.594,VALID,28.8678,VALID,238,VALID,0.310547,